Tracking 27420 objects as of 28-May-2023
HD Live streaming from Space Station
objects crossing your sky now

CZ-4 DEB

Track CZ-4 DEB now!
10-day predictions


NORAD ID: 37612
Int'l Code: 1990-081CY
Perigee: 728.1 km
Apogee: 776.4 km
Inclination: 98.4 °
Period: 99.7 minutes
Semi major axis: 7123 km
RCS: 0.0126 m2 (small)
Launch date: September 3, 1990
Source: People's Republic of China (PRC)
Launch site: Taiyaun Space Center, China (TSC)

Note: This is SATELLITE DEBRIS
Your satellite tracking list
Your tracking list is empty




NASA's NSSDC Master Catalog

Two Line Element Set (TLE):
1 37612U 90081CY  23147.86713309  .00002018  00000-0  59827-3 0  9996
2 37612  98.3759 186.5400 0033941 331.8102 202.3241 14.44068461522173
Source of the keplerian elements: AFSPC